Location: El Chorro
(10.0985°N, 67.3542°W)
Time: 18:58:57
(UTC+00:00)

SJ 16-02 - Pass Details

Date: 15 November 2025
Orbit: 585 x 594 km, 75.0° (Epoch: 06 December)

Event Time Altitude Azimuth Distance (km) Brightness Sun altitude
Rises 22:31:13 0° 197° (SSW) 2,821 5.3 -7.2°
Reaches altitude 10° 22:33:27 10° 199° (SSW) 1,921 4.4 -7.7°
Maximum altitude 22:37:42 66° 282° (WNW) 647 1.7 -8.7°
Drops below altitude 10° 22:41:57 10° 5° (N) 1,922 3.7 -9.7°
Sets 22:44:11 0° 8° (N) 2,823 4.5 -10.3°
